Location: DaVinci Observatory
(43.1080°N, 78.6453°W)
Time: 00:05:26
(UTC-04:00)

Envisat - Pass Details

Date: 15 October 2017
Orbit: 764 x 766 km, 98.2° (Epoch: 17 October)

Event Time Altitude Azimuth Distance (km) Brightness Sun altitude
Exits shadow 19:43:02 19° 71° (ENE) 1,783 4.3 -13.8°
Maximum altitude 19:43:37 19° 62° (ENE) 1,766 4.4 -14.0°
Drops below altitude 10° 19:47:06 10° 19° (NNE) 2,310 5.3 -14.6°
Sets 19:50:01 0° 2° (N) 3,241 6.3 -15.1°
